Change the Weather History Date:

Thursday, January 10, 2013

  Actual Average Record
Temperature  
Mean Temperature 31 °F -  
Max Temperature 40 °F 13 °F 45 °F (2012)
Min Temperature 22 °F 0 °F -15 °F (2015)
Degree Days  
Heating Degree Days 34    
Moisture  
Dew Point 29 °F    
Average Humidity 85    
Maximum Humidity 96    
Minimum Humidity 60    
Precipitation  
Precipitation 0.08 in - - ()
Sea Level Pressure  
Sea Level Pressure 29.69 in    
Wind  
Wind Speed 17 mph (SSE)    
Max Wind Speed 24 mph    
Max Gust Speed 32 mph    
Visibility 8 miles    
Events Rain    
Averages and records for this station are not official NWS values.
T = Trace of Precipitation, MM = Missing Value Source: NWS Daily Summary

Daily Weather History Graph

Daily Weather History Graph

Search for Another Location

Airport or City:

Trip Planner

Search our weather history database for the weather conditions in past years. The results will help you decide how hot, cold, wet, or windy it might be!

Date:

Astronomy

Jan. 10, 2013 Rise Set
Actual Time 8:17 AM CST 4:57 PM CST
Civil Twilight 7:41 AM CST 5:33 PM CST
Nautical Twilight 7:02 AM CST 6:12 PM CST
Astronomical Twilight 6:25 AM CST 6:49 PM CST
Moon 6:57 AM CST (1/10) 4:08 PM CST (1/10)
Length of Visible Light 9h 51m
Length of Day
8h 40m
Waning Crescent, 2% of the Moon is Illuminated
Jan 10
Waning Crescent
Jan 11
New
Jan 18
First Quarter
Jan 26
Full
Feb 3
Last Quarter

Hourly Weather History & Observations

Time (CST) Temp. Windchill Dew Point Humidity Pressure Visibility Wind Dir Wind Speed Gust Speed Precip Events Conditions
12:55 AM 22.6 °F 7.9 °F 18.3 °F 83% 29.98 in 10.0 mi SSE 19.6 mph - N/A   Clear
1:55 AM 23.7 °F 8.9 °F 19.0 °F 82% 29.96 in 10.0 mi South 20.7 mph - N/A   Clear
2:55 AM 23.2 °F 10.8 °F 19.0 °F 84% 29.94 in 10.0 mi SSE 13.8 mph - N/A   Clear
3:55 AM 23.2 °F 10.3 °F 19.4 °F 85% 29.90 in 10.0 mi SSE 15.0 mph - N/A   Clear
4:55 AM 24.6 °F 11.3 °F 20.5 °F 84% 29.85 in 10.0 mi South 17.3 mph - N/A   Clear
5:55 AM 26.4 °F 14.5 °F 21.6 °F 82% 29.83 in 10.0 mi South 15.0 mph - N/A   Clear
6:55 AM 28.2 °F 16.3 °F 23.2 °F 81% 29.81 in 10.0 mi South 16.1 mph - N/A   Clear
7:55 AM 29.7 °F 17.8 °F 24.1 °F 80% 29.80 in 10.0 mi South 17.3 mph - N/A   Clear
8:55 AM 32.0 °F 20.5 °F 25.5 °F 77% 29.77 in 10.0 mi South 18.4 mph - N/A   Clear
9:55 AM 38.3 °F 27.3 °F 28.4 °F 68% 29.77 in 10.0 mi South 24.2 mph 31.1 mph N/A   Clear
10:55 AM 39.4 °F 28.7 °F 28.0 °F 64% 29.77 in 10.0 mi South 24.2 mph 32.2 mph N/A   Clear
11:55 AM 40.5 °F 30.9 °F 27.5 °F 60% 29.75 in 10.0 mi South 20.7 mph - N/A   Clear
12:55 PM 40.6 °F 31.7 °F 27.9 °F 60% 29.73 in 10.0 mi South 18.4 mph - N/A   Clear
1:55 PM 40.3 °F 30.4 °F 28.2 °F 62% 29.72 in 10.0 mi South 21.9 mph - N/A   Clear
2:55 PM 40.1 °F 32.4 °F 29.1 °F 65% 29.71 in 10.0 mi South 13.8 mph - N/A   Clear
3:55 PM 37.6 °F 26.9 °F 30.2 °F 75% 29.71 in 10.0 mi SSE 21.9 mph 26.5 mph N/A   Clear
4:55 PM 36.5 °F 26.0 °F 28.9 °F 74% 29.69 in 10.0 mi SSE 19.6 mph 24.2 mph N/A   Clear
5:55 PM 36.0 °F 27.1 °F 28.0 °F 73% 29.69 in 10.0 mi South 13.8 mph - N/A   Clear
6:55 PM 34.9 °F 25.7 °F 28.4 °F 77% 29.67 in 10.0 mi South 13.8 mph - N/A   Clear
7:36 PM 35.6 °F 26.2 °F 28.4 °F 75% 29.65 in 10.0 mi South 15.0 mph - N/A   Overcast
7:55 PM 34.9 °F 25.3 °F 29.3 °F 80% 29.65 in 10.0 mi SSE 15.0 mph - N/A   Overcast
8:18 PM 33.8 °F 23.9 °F 30.2 °F 87% 29.65 in 10.0 mi SSE 15.0 mph - N/A   Overcast
8:28 PM 33.8 °F 23.5 °F 30.2 °F 87% 29.64 in 10.0 mi SSE 16.1 mph - N/A   Overcast
8:39 PM 33.8 °F 23.9 °F 32.0 °F 93% 29.63 in 10.0 mi SSE 15.0 mph - N/A   Overcast
8:45 PM 33.8 °F 23.9 °F 32.0 °F 93% 29.63 in 10.0 mi SSE 15.0 mph - N/A   Overcast
8:48 PM 33.8 °F 23.2 °F 32.0 °F 93% 29.63 in 9.0 mi South 17.3 mph - N/A Rain Light Rain
8:54 PM 33.8 °F 23.5 °F 32.0 °F 93% 29.63 in 4.0 mi SSE 16.1 mph - N/A Rain Light Rain
8:55 PM 34.2 °F 23.6 °F 31.6 °F 90% 29.63 in 5.0 mi SSE 17.3 mph - 0.00 in Rain Light Rain
9:08 PM 33.8 °F 23.5 °F 32.0 °F 93% 29.63 in 4.0 mi South 16.1 mph - N/A Rain Light Rain
9:10 PM 33.8 °F 23.5 °F 32.0 °F 93% 29.63 in 4.0 mi South 16.1 mph - N/A Rain Light Rain
9:32 PM 33.8 °F 22.5 °F 32.0 °F 93% 29.63 in 3.0 mi SSE 19.6 mph - N/A   Overcast
9:47 PM 33.8 °F 22.8 °F 32.0 °F 93% 29.62 in 4.0 mi SSE 18.4 mph - N/A Rain Light Rain
9:55 PM 33.6 °F 22.9 °F 32.4 °F 95% 29.62 in 4.0 mi South 17.3 mph - 0.06 in Rain Light Rain
9:58 PM 33.8 °F 23.2 °F 32.0 °F 93% 29.61 in 5.0 mi South 17.3 mph - N/A Rain Light Rain
10:08 PM 33.8 °F 23.5 °F 32.0 °F 93% 29.62 in 6.0 mi South 16.1 mph - N/A Rain Light Rain
10:28 PM 33.8 °F 23.9 °F 32.0 °F 93% 29.60 in 6.0 mi SSE 15.0 mph - N/A Rain Light Rain
10:36 PM 33.8 °F 24.3 °F 32.0 °F 93% 29.60 in 4.0 mi SSE 13.8 mph - N/A Rain Light Rain
10:43 PM 33.8 °F 25.3 °F 32.0 °F 93% 29.60 in 4.0 mi South 11.5 mph - N/A Rain Light Rain
10:49 PM 33.8 °F 24.8 °F 32.0 °F 93% 29.60 in 5.0 mi SSE 12.7 mph - N/A   Overcast
10:55 PM 33.3 °F 24.6 °F 32.0 °F 95% 29.60 in 6.0 mi SSE 11.5 mph - 0.01 in   Overcast
10:57 PM 33.8 °F 24.8 °F 32.0 °F 93% 29.60 in 6.0 mi SSE 12.7 mph - N/A Rain Light Rain
11:16 PM 33.8 °F 24.3 °F 32.0 °F 93% 29.59 in 7.0 mi South 13.8 mph - N/A   Overcast
11:22 PM 33.8 °F 25.3 °F 32.0 °F 93% 29.59 in 8.0 mi South 11.5 mph - N/A Rain Light Rain
11:47 PM 33.8 °F 27.0 °F 32.0 °F 93% 29.59 in 6.0 mi South 8.1 mph - N/A   Overcast
11:54 PM 33.8 °F 25.8 °F 32.0 °F 93% 29.59 in 8.0 mi South 10.4 mph - N/A   Overcast
11:55 PM 32.9 °F 25.3 °F 31.8 °F 96% 29.58 in 7.0 mi SSE 9.2 mph - 0.01 in   Overcast